| time (UTC) | temp F | wind direction | speed MPH | gust MPH | rain 1hr in | rain 24hr in | rain mn in | humidity % | barometer mb |
| 20260509143605 | 52 | 115 | 1.0 | 6.0 | 0.04 | 0.20 | 0.12 | 88 | 1009.2 |
| 20260509143104 | 52 | 106 | 2.0 | 7.0 | 0.04 | 0.20 | 0.12 | 89 | 1009.3 |
| 20260509142604 | 52 | 42 | 2.0 | 7.0 | 0.04 | 0.20 | 0.12 | 89 | 1009.3 |
| 20260509142103 | 52 | 121 | 2.0 | 8.0 | 0.05 | 0.20 | 0.12 | 89 | 1009.3 |
| 20260509141832 | 52 | 133 | 2.0 | 10.0 | 0.04 | 0.19 | 0.11 | 88 | 1009.3 |
| 20260509141103 | 52 | 69 | 2.0 | 10.0 | 0.05 | 0.19 | 0.11 | 88 | 1009.4 |
| 20260509140604 | 52 | 89 | 1.0 | 8.0 | 0.04 | 0.18 | 0.10 | 88 | 1009.4 |
| 20260509140104 | 52 | 78 | 2.0 | 10.0 | 0.05 | 0.18 | 0.10 | 88 | 1009.4 |
| 20260509135601 | 52 | 113 | 2.0 | 10.0 | 0.04 | 0.17 | 0.09 | 88 | 1009.4 |
| 20260509135321 | 51 | 87 | 3.0 | 10.0 | 0.05 | 0.17 | 0.09 | 88 | 1009.4 |
| 20260509134557 | 51 | 74 | 3.0 | 10.0 | 0.05 | 0.17 | 0.09 | 88 | 1009.5 |
| 20260509134533 | 51 | 98 | 1.0 | 9.0 | 0.04 | 0.16 | 0.08 | 88 | 1009.5 |
| 20260509133553 | 51 | 98 | 1.0 | 6.0 | 0.04 | 0.16 | 0.08 | 88 | 1009.5 |
| 20260509133052 | 51 | 86 | 2.0 | 8.0 | 0.04 | 0.16 | 0.08 | 88 | 1009.5 |
| 20260509132552 | 51 | 65 | 2.0 | 8.0 | 0.04 | 0.16 | 0.08 | 88 | 1009.5 |
| 20260509132105 | 51 | 69 | 2.0 | 8.0 | 0.03 | 0.15 | 0.07 | 87 | 1009.6 |
| 20260509131553 | 51 | 95 | 2.0 | 8.0 | 0.03 | 0.15 | 0.07 | 86 | 1009.6 |
| 20260509131052 | 51 | 60 | 1.0 | 5.0 | 0.02 | 0.14 | 0.06 | 86 | 1009.6 |
| 20260509130605 | 51 | 70 | 1.0 | 5.0 | 0.01 | 0.13 | 0.06 | 86 | 1009.6 |
| 20260509130106 | 51 | 68 | 0.0 | 5.0 | 0.01 | 0.13 | 0.05 | 86 | 1009.6 |
| 20260509125551 | 51 | 111 | 1.0 | 7.0 | 0.00 | 0.12 | 0.04 | 85 | 1009.6 |
| 20260509125050 | 51 | 134 | 1.0 | 7.0 | 0.00 | 0.12 | 0.04 | 84 | 1009.6 |
| 20260509124811 | 51 | 80 | 1.0 | 7.0 | 0.00 | 0.12 | 0.04 | 84 | 1009.6 |
| 20260509124049 | 51 | 76 | 2.0 | 6.0 | 0.00 | 0.12 | 0.04 | 84 | 1009.5 |
| 20260509123812 | 51 | 75 | 2.0 | 5.0 | 0.00 | 0.12 | 0.04 | 83 | 1009.6 |
| 20260509123046 | 51 | 81 | 1.0 | 5.0 | 0.00 | 0.12 | 0.04 | 84 | 1009.6 |
| 20260509122545 | 51 | 49 | 1.0 | 4.0 | 0.00 | 0.12 | 0.04 | 83 | 1009.6 |
| 20260509122045 | 51 | 94 | 1.0 | 4.0 | 0.00 | 0.12 | 0.04 | 83 | 1009.7 |
| 20260509121543 | 51 | 85 | 0.0 | 4.0 | 0.00 | 0.12 | 0.04 | 84 | 1009.7 |
| 20260509121042 | 51 | 80 | 1.0 | 8.0 | 0.00 | 0.12 | 0.04 | 84 | 1009.7 |
| 20260509121024 | 51 | 75 | 2.0 | 8.0 | 0.00 | 0.12 | 0.04 | 83 | 1009.8 |
| 20260509120252 | 51 | 92 | 1.0 | 6.0 | 0.00 | 0.12 | 0.04 | 84 | 1009.8 |
| 20260509115535 | 51 | 54 | 1.0 | 5.0 | 0.00 | 0.12 | 0.04 | 84 | 1009.8 |
| 20260509115034 | 51 | 49 | 0.0 | 2.0 | 0.00 | 0.12 | 0.04 | 84 | 1009.8 |
| 20260509114535 | 51 | 48 | 1.0 | 5.0 | 0.00 | 0.12 | 0.04 | 84 | 1009.8 |
| 20260509114035 | 51 | 47 | 1.0 | 5.0 | 0.00 | 0.12 | 0.04 | 84 | 1009.8 |
| 20260509113532 | 51 | 126 | 1.0 | 6.0 | 0.00 | 0.12 | 0.04 | 84 | 1009.8 |
| 20260509113259 | 50 | 80 | 1.0 | 6.0 | 0.00 | 0.12 | 0.04 | 84 | 1009.8 |
| 20260509112754 | 50 | 82 | 1.0 | 4.0 | 0.01 | 0.12 | 0.04 | 85 | 1009.9 |
| 20260509112258 | 50 | 66 | 1.0 | 9.0 | 0.01 | 0.12 | 0.04 | 85 | 1009.9 |
| 20260509111533 | 50 | 80 | 2.0 | 9.0 | 0.01 | 0.12 | 0.04 | 85 | 1009.8 |
| 20260509111034 | 50 | 59 | 2.0 | 11.0 | 0.01 | 0.12 | 0.04 | 85 | 1009.8 |
| 20260509110546 | 49 | 62 | 2.0 | 11.0 | 0.01 | 0.12 | 0.04 | 86 | 1009.8 |
| 20260509110032 | 49 | 57 | 1.0 | 8.0 | 0.01 | 0.12 | 0.04 | 87 | 1009.8 |
| 20260509105533 | 48 | 113 | 0.0 | 5.0 | 0.01 | 0.12 | 0.04 | 89 | 1009.9 |
| 20260509105030 | 48 | 104 | 1.0 | 4.0 | 0.01 | 0.12 | 0.04 | 90 | 1009.9 |
| 20260509105010 | 48 | 90 | 1.0 | 4.0 | 0.01 | 0.12 | 0.04 | 90 | 1009.9 |
| 20260509104030 | 47 | 77 | 2.0 | 4.0 | 0.01 | 0.12 | 0.04 | 92 | 1009.9 |
| 20260509103531 | 47 | 38 | 1.0 | 4.0 | 0.01 | 0.12 | 0.04 | 93 | 1009.8 |
| 20260509103030 | 47 | 86 | 0.0 | 4.0 | 0.01 | 0.12 | 0.04 | 93 | 1009.8 |
| 20260509102532 | 47 | 97 | 0.0 | 0.0 | 0.00 | 0.11 | 0.03 | 93 | 1009.9 |
| 20260509102259 | 47 | 97 | 0.0 | 0.0 | 0.00 | 0.11 | 0.03 | 93 | 1009.9 |
| 20260509101532 | 47 | 97 | 0.0 | 0.0 | 0.00 | 0.11 | 0.03 | 93 | 1010.0 |
| 20260509101030 | 47 | 97 | 0.0 | 0.0 | 0.00 | 0.11 | 0.03 | 93 | 1010.1 |
| 20260509100532 | 47 | 97 | 0.0 | 0.0 | 0.00 | 0.11 | 0.03 | 93 | 1010.0 |
| 20260509100031 | 47 | 97 | 0.0 | 0.0 | 0.00 | 0.11 | 0.03 | 93 | 1010.1 |
| 20260509095532 | 47 | 97 | 0.0 | 0.0 | 0.00 | 0.11 | 0.03 | 93 | 1010.0 |
| 20260509095031 | 47 | 97 | 0.0 | 0.0 | 0.00 | 0.11 | 0.03 | 93 | 1010.0 |
| 20260509094530 | 47 | 97 | 0.0 | 0.0 | 0.00 | 0.11 | 0.03 | 93 | 1009.8 |
| 20260509094247 | 46 | 97 | 0.0 | 0.0 | 0.00 | 0.11 | 0.03 | 93 | 1009.8 |
| 20260509093528 | 46 | 97 | 0.0 | 0.0 | 0.00 | 0.11 | 0.03 | 93 | 1009.8 |
| 20260509093027 | 46 | 97 | 0.0 | 0.0 | 0.00 | 0.11 | 0.03 | 93 | 1009.8 |
| 20260509092747 | 46 | 97 | 0.0 | 0.0 | 0.00 | 0.11 | 0.03 | 93 | 1009.9 |
| 20260509092242 | 46 | 97 | 0.0 | 0.0 | 0.00 | 0.11 | 0.03 | 93 | 1009.9 |
| 20260509091525 | 46 | 97 | 0.0 | 0.0 | 0.00 | 0.11 | 0.03 | 93 | 1009.9 |
| 20260509091023 | 46 | 97 | 0.0 | 0.0 | 0.00 | 0.11 | 0.03 | 93 | 1009.9 |
| 20260509090743 | 46 | 97 | 0.0 | 0.0 | 0.00 | 0.11 | 0.03 | 93 | 1009.8 |
| 20260509090023 | 46 | 97 | 0.0 | 0.0 | 0.00 | 0.11 | 0.03 | 93 | 1009.9 |
| 20260509085525 | 46 | 97 | 0.0 | 0.0 | 0.00 | 0.11 | 0.03 | 93 | 1009.8 |
| 20260509085023 | 46 | 97 | 0.0 | 0.0 | 0.01 | 0.11 | 0.03 | 93 | 1009.8 |
| 20260509084527 | 46 | 97 | 0.0 | 0.0 | 0.01 | 0.11 | 0.03 | 93 | 1010.0 |
| 20260509084024 | 46 | 97 | 0.0 | 0.0 | 0.01 | 0.11 | 0.03 | 93 | 1010.0 |
| 20260509083524 | 46 | 97 | 0.0 | 0.0 | 0.01 | 0.11 | 0.03 | 93 | 1009.9 |
| 20260509083025 | 46 | 97 | 0.0 | 0.0 | 0.01 | 0.11 | 0.03 | 93 | 1010.0 |
| 20260509082747 | 46 | 97 | 0.0 | 0.0 | 0.01 | 0.11 | 0.03 | 93 | 1009.9 |
| 20260509082025 | 46 | 97 | 0.0 | 0.0 | 0.01 | 0.11 | 0.03 | 93 | 1009.9 |
| 20260509081523 | 46 | 97 | 0.0 | 0.0 | 0.01 | 0.11 | 0.03 | 92 | 1010.0 |
| 20260509081027 | 46 | 97 | 0.0 | 0.0 | 0.01 | 0.11 | 0.03 | 92 | 1010.0 |
| 20260509080523 | 46 | 97 | 0.0 | 0.0 | 0.01 | 0.11 | 0.03 | 92 | 1010.0 |
| 20260509080026 | 46 | 97 | 0.0 | 0.0 | 0.01 | 0.11 | 0.03 | 92 | 1010.0 |
| 20260509075523 | 46 | 97 | 0.0 | 0.0 | 0.01 | 0.11 | 0.03 | 92 | 1010.0 |
| 20260509075023 | 46 | 97 | 0.0 | 0.0 | 0.00 | 0.10 | 0.02 | 92 | 1010.0 |
| 20260509074523 | 47 | 97 | 0.0 | 0.0 | 0.00 | 0.10 | 0.02 | 92 | 1010.0 |
| 20260509074244 | 47 | 97 | 0.0 | 0.0 | 0.00 | 0.10 | 0.02 | 92 | 1010.1 |
| 20260509073525 | 47 | 97 | 0.0 | 0.0 | 0.00 | 0.10 | 0.02 | 92 | 1010.1 |
| 20260509073024 | 47 | 97 | 0.0 | 0.0 | 0.00 | 0.10 | 0.02 | 92 | 1010.1 |
| 20260509072523 | 47 | 97 | 0.0 | 0.0 | 0.00 | 0.10 | 0.02 | 92 | 1010.1 |
| 20260509072024 | 47 | 97 | 0.0 | 0.0 | 0.00 | 0.10 | 0.02 | 92 | 1010.1 |
| 20260509071523 | 47 | 97 | 0.0 | 0.0 | 0.00 | 0.10 | 0.02 | 92 | 1010.2 |
| 20260509071024 | 47 | 97 | 0.0 | 0.0 | 0.00 | 0.10 | 0.02 | 92 | 1010.1 |
| 20260509070523 | 46 | 97 | 0.0 | 0.0 | 0.00 | 0.10 | 0.02 | 92 | 1010.2 |
| 20260509070026 | 46 | 97 | 0.0 | 0.0 | 0.00 | 0.10 | 0.02 | 92 | 1010.3 |
| 20260509070018 | 46 | 97 | 0.0 | 0.0 | 0.00 | 0.11 | 0.02 | 92 | 1010.4 |
| 20260509065024 | 47 | 97 | 0.0 | 0.0 | 0.00 | 0.11 | 0.02 | 92 | 1010.3 |
| 20260509064523 | 47 | 97 | 0.0 | 0.0 | 0.00 | 0.11 | 0.02 | 92 | 1010.5 |
| 20260509064023 | 47 | 97 | 0.0 | 0.0 | 0.00 | 0.11 | 0.02 | 92 | 1010.6 |
| 20260509063523 | 47 | 97 | 0.0 | 0.0 | 0.00 | 0.11 | 0.02 | 92 | 1010.7 |
| 20260509063023 | 47 | 97 | 0.0 | 0.0 | 0.00 | 0.11 | 0.02 | 92 | 1010.8 |
| 20260509062524 | 47 | 97 | 0.0 | 0.0 | 0.00 | 0.11 | 0.02 | 92 | 1011.0 |
| 20260509062023 | 47 | 97 | 0.0 | 0.0 | 0.00 | 0.11 | 0.02 | 92 | 1011.1 |
| 20260509061524 | 47 | 97 | 0.0 | 0.0 | 0.00 | 0.11 | 0.02 | 92 | 1011.2 |
| 20260509061024 | 47 | 97 | 0.0 | 0.0 | 0.00 | 0.11 | 0.02 | 91 | 1011.3 |
| 20260509060523 | 47 | 97 | 0.0 | 0.0 | 0.00 | 0.11 | 0.02 | 91 | 1011.4 |
| 20260509060024 | 47 | 97 | 0.0 | 0.0 | 0.00 | 0.11 | 0.02 | 91 | 1011.5 |
| 20260509055524 | 47 | 97 | 0.0 | 0.0 | 0.01 | 0.11 | 0.02 | 91 | 1011.6 |
| 20260509055023 | 47 | 97 | 0.0 | 0.0 | 0.01 | 0.11 | 0.02 | 91 | 1011.6 |
| 20260509054745 | 47 | 97 | 0.0 | 0.0 | 0.01 | 0.11 | 0.02 | 91 | 1011.6 |
| 20260509054023 | 47 | 97 | 0.0 | 0.0 | 0.01 | 0.11 | 0.02 | 91 | 1011.6 |
| 20260509053525 | 47 | 97 | 0.0 | 0.0 | 0.01 | 0.11 | 0.02 | 91 | 1011.5 |
| 20260509053021 | 47 | 97 | 0.0 | 0.0 | 0.01 | 0.11 | 0.02 | 91 | 1011.5 |
| 20260509052521 | 47 | 97 | 0.0 | 2.0 | 0.01 | 0.11 | 0.02 | 91 | 1011.5 |
| 20260509052022 | 47 | 97 | 0.0 | 2.0 | 0.01 | 0.11 | 0.02 | 91 | 1011.6 |
| 20260509051521 | 47 | 97 | 0.0 | 1.0 | 0.01 | 0.11 | 0.02 | 91 | 1011.6 |
| 20260509051021 | 47 | 97 | 0.0 | 0.0 | 0.01 | 0.11 | 0.02 | 91 | 1011.7 |
| 20260509050522 | 47 | 97 | 0.0 | 0.0 | 0.02 | 0.11 | 0.02 | 91 | 1011.8 |
| 20260509050019 | 47 | 97 | 0.0 | 0.0 | 0.02 | 0.11 | 0.02 | 91 | 1012.0 |
| 20260509045520 | 47 | 97 | 0.0 | 0.0 | 0.01 | 0.10 | 0.02 | 91 | 1012.1 |
| 20260509045510 | 47 | 97 | 0.0 | 0.0 | 0.01 | 0.10 | 0.01 | 91 | 1012.1 |
| 20260509044521 | 47 | 97 | 0.0 | 0.0 | 0.01 | 0.10 | 0.01 | 91 | 1012.2 |
| 20260509044021 | 47 | 97 | 0.0 | 0.0 | 0.02 | 0.10 | 0.01 | 91 | 1012.2 |
| 20260509043522 | 47 | 97 | 0.0 | 0.0 | 0.02 | 0.10 | 0.01 | 91 | 1012.3 |
| 20260509043018 | 47 | 97 | 0.0 | 0.0 | 0.02 | 0.10 | 0.01 | 91 | 1012.3 |
| 20260509042516 | 47 | 97 | 0.0 | 2.0 | 0.02 | 0.10 | 0.01 | 90 | 1012.3 |
| 20260509042016 | 47 | 97 | 0.0 | 2.0 | 0.02 | 0.10 | 0.01 | 90 | 1012.3 |
| 20260509041516 | 47 | 97 | 0.0 | 0.0 | 0.02 | 0.10 | 0.01 | 90 | 1012.3 |
| 20260509041016 | 47 | 97 | 0.0 | 0.0 | 0.02 | 0.10 | 0.01 | 90 | 1012.3 |
| 20260509040516 | 47 | 97 | 0.0 | 0.0 | 0.01 | 0.09 | 0.00 | 90 | 1012.4 |
| 20260509040013 | 47 | 97 | 0.0 | 0.0 | 0.01 | 0.09 | 0.00 | 90 | 1012.5 |
| 20260509035515 | 47 | 97 | 0.0 | 0.0 | 0.01 | 0.09 | 0.09 | 90 | 1012.4 |
| 20260509035233 | 47 | 97 | 0.0 | 0.0 | 0.01 | 0.09 | 0.09 | 90 | 1012.6 |
| 20260509034514 | 47 | 97 | 0.0 | 0.0 | 0.01 | 0.09 | 0.09 | 90 | 1012.6 |
| 20260509034231 | 47 | 97 | 0.0 | 0.0 | 0.00 | 0.08 | 0.08 | 90 | 1012.6 |
| 20260509033511 | 47 | 97 | 0.0 | 0.0 | 0.00 | 0.08 | 0.08 | 90 | 1012.8 |
| 20260509033233 | 47 | 97 | 0.0 | 0.0 | 0.00 | 0.08 | 0.08 | 90 | 1012.8 |
| 20260509032508 | 47 | 97 | 0.0 | 0.0 | 0.00 | 0.08 | 0.08 | 89 | 1012.8 |
| 20260509032000 | 47 | 97 | 0.0 | 0.0 | 0.00 | 0.08 | 0.08 | 90 | 1012.8 |
| 20260509031455 | 47 | 97 | 0.0 | 0.0 | 0.00 | 0.08 | 0.08 | 89 | 1012.7 |
| 20260509031217 | 47 | 97 | 0.0 | 0.0 | 0.00 | 0.08 | 0.08 | 89 | 1012.6 |
| 20260509030449 | 47 | 97 | 0.0 | 0.0 | 0.00 | 0.08 | 0.08 | 89 | 1012.7 |
| 20260509025946 | 47 | 97 | 0.0 | 0.0 | 0.00 | 0.08 | 0.08 | 89 | 1012.6 |
| 20260509025445 | 47 | 97 | 0.0 | 0.0 | 0.00 | 0.08 | 0.08 | 89 | 1012.5 |
| 20260509024945 | 47 | 97 | 0.0 | 0.0 | 0.00 | 0.08 | 0.08 | 89 | 1012.4 |
| 20260509024448 | 47 | 97 | 0.0 | 0.0 | 0.00 | 0.08 | 0.08 | 89 | 1012.4 |
| 20260509023943 | 47 | 97 | 0.0 | 0.0 | 0.00 | 0.08 | 0.08 | 89 | 1012.4 |
| 20260509023441 | 47 | 97 | 0.0 | 0.0 | 0.00 | 0.08 | 0.08 | 88 | 1012.2 |
| 20260509022940 | 47 | 97 | 0.0 | 0.0 | 0.00 | 0.08 | 0.08 | 88 | 1012.3 |
| 20260509022705 | 47 | 97 | 0.0 | 0.0 | 0.00 | 0.08 | 0.08 | 88 | 1012.4 |
| 20260509021939 | 47 | 97 | 0.0 | 0.0 | 0.00 | 0.08 | 0.08 | 87 | 1012.5 |
| 20260509021925 | 47 | 97 | 0.0 | 0.0 | 0.00 | 0.08 | 0.08 | 87 | 1012.5 |
| 20260509020934 | 47 | 97 | 0.0 | 0.0 | 0.00 | 0.08 | 0.08 | 86 | 1012.6 |
| 20260509020435 | 48 | 97 | 0.0 | 0.0 | 0.01 | 0.08 | 0.08 | 87 | 1012.6 |
| 20260509015933 | 48 | 97 | 0.0 | 0.0 | 0.01 | 0.08 | 0.08 | 86 | 1012.6 |
| 20260509015435 | 48 | 97 | 0.0 | 0.0 | 0.01 | 0.08 | 0.08 | 85 | 1012.6 |
| 20260509014931 | 48 | 97 | 0.0 | 0.0 | 0.01 | 0.08 | 0.08 | 85 | 1012.5 |
| 20260509014429 | 49 | 97 | 0.0 | 0.0 | 0.01 | 0.08 | 0.08 | 84 | 1012.4 |
| 20260509014147 | 49 | 97 | 0.0 | 0.0 | 0.01 | 0.08 | 0.08 | 84 | 1012.2 |
| 20260509013644 | 49 | 97 | 0.0 | 0.0 | 0.01 | 0.08 | 0.08 | 84 | 1012.2 |
| 20260509012921 | 49 | 97 | 0.0 | 0.0 | 0.01 | 0.08 | 0.08 | 83 | 1012.1 |
| 20260509012422 | 49 | 97 | 0.0 | 0.0 | 0.01 | 0.08 | 0.08 | 83 | 1011.9 |
| 20260509011918 | 49 | 97 | 0.0 | 0.0 | 0.01 | 0.08 | 0.08 | 83 | 1012.0 |
| 20260509011413 | 49 | 97 | 0.0 | 2.0 | 0.01 | 0.08 | 0.08 | 82 | 1012.0 |
| 20260509010910 | 50 | 97 | 0.0 | 2.0 | 0.00 | 0.07 | 0.07 | 82 | 1012.0 |
| 20260509010410 | 50 | 157 | 0.0 | 0.0 | 0.00 | 0.07 | 0.07 | 82 | 1012.0 |
| 20260509010131 | 50 | 157 | 0.0 | 0.0 | 0.00 | 0.07 | 0.07 | 81 | 1012.0 |
| 20260509005406 | 50 | 157 | 0.0 | 0.0 | 0.00 | 0.07 | 0.07 | 81 | 1012.0 |
| 20260509004907 | 50 | 157 | 0.0 | 0.0 | 0.00 | 0.07 | 0.07 | 80 | 1012.0 |
| 20260509004406 | 51 | 157 | 0.0 | 0.0 | 0.00 | 0.07 | 0.07 | 79 | 1011.6 |
| 20260509004133 | 51 | 157 | 0.0 | 0.0 | 0.00 | 0.07 | 0.07 | 78 | 1011.6 |
| 20260509003634 | 51 | 157 | 0.0 | 0.0 | 0.00 | 0.07 | 0.07 | 77 | 1011.5 |
| 20260509002905 | 51 | 157 | 0.0 | 0.0 | 0.00 | 0.07 | 0.07 | 75 | 1011.4 |
| 20260509002405 | 52 | 157 | 0.0 | 5.0 | 0.00 | 0.07 | 0.07 | 75 | 1011.5 |
| 20260509001901 | 52 | 157 | 1.0 | 5.0 | 0.00 | 0.07 | 0.07 | 74 | 1011.6 |
| 20260509001621 | 52 | 177 | 1.0 | 7.0 | 0.00 | 0.07 | 0.07 | 72 | 1011.6 |
| 20260509000900 | 53 | 159 | 1.0 | 8.0 | 0.00 | 0.07 | 0.07 | 71 | 1011.7 |
| 20260509000358 | 53 | 105 | 1.0 | 8.0 | 0.00 | 0.07 | 0.07 | 69 | 1011.7 |
| 20260508235859 | 53 | 171 | 1.0 | 6.0 | 0.00 | 0.07 | 0.07 | 68 | 1011.7 |
| 20260508235359 | 53 | 67 | 1.0 | 11.0 | 0.00 | 0.07 | 0.07 | 67 | 1011.7 |
| 20260508234858 | 53 | 121 | 2.0 | 11.0 | 0.00 | 0.07 | 0.07 | 68 | 1011.6 |
| 20260508234359 | 53 | 72 | 2.0 | 8.0 | 0.00 | 0.07 | 0.07 | 68 | 1011.6 |
| 20260508233857 | 53 | 92 | 1.0 | 9.0 | 0.00 | 0.07 | 0.07 | 69 | 1011.5 |
| 20260508233836 | 53 | 127 | 1.0 | 9.0 | 0.00 | 0.07 | 0.07 | 69 | 1011.5 |
| 20260508232848 | 53 | 84 | 2.0 | 11.0 | 0.00 | 0.07 | 0.07 | 70 | 1011.5 |
| 20260508232346 | 53 | 65 | 2.0 | 11.0 | 0.00 | 0.07 | 0.07 | 69 | 1011.5 |
| 20260508231844 | 54 | 85 | 1.0 | 9.0 | 0.00 | 0.07 | 0.07 | 69 | 1011.4 |
| 20260508231344 | 54 | 88 | 1.0 | 5.0 | 0.00 | 0.07 | 0.07 | 69 | 1011.4 |
| 20260508230842 | 54 | 74 | 1.0 | 11.0 | 0.00 | 0.07 | 0.07 | 69 | 1011.5 |
| 20260508230341 | 54 | 161 | 2.0 | 11.0 | 0.00 | 0.07 | 0.07 | 68 | 1011.3 |
| 20260508230101 | 54 | 172 | 2.0 | 8.0 | 0.00 | 0.07 | 0.07 | 69 | 1011.3 |
| 20260508225341 | 54 | 144 | 2.0 | 10.0 | 0.00 | 0.07 | 0.07 | 69 | 1011.3 |
| 20260508224838 | 54 | 79 | 2.0 | 10.0 | 0.00 | 0.07 | 0.07 | 70 | 1011.2 |
| 20260508224337 | 55 | 195 | 2.0 | 9.0 | 0.00 | 0.07 | 0.07 | 70 | 1011.2 |
| 20260508223836 | 55 | 175 | 3.0 | 10.0 | 0.00 | 0.07 | 0.07 | 70 | 1011.2 |
| 20260508223601 | 55 | 78 | 4.0 | 11.0 | 0.00 | 0.07 | 0.07 | 70 | 1011.1 |
| 20260508222835 | 55 | 89 | 2.0 | 11.0 | 0.00 | 0.07 | 0.07 | 71 | 1011.2 |
| 20260508222335 | 55 | 144 | 2.0 | 8.0 | 0.00 | 0.07 | 0.07 | 72 | 1011.1 |
| 20260508221834 | 55 | 103 | 2.0 | 8.0 | 0.00 | 0.07 | 0.07 | 72 | 1011.1 |
| 20260508221334 | 54 | 118 | 3.0 | 9.0 | 0.00 | 0.07 | 0.07 | 73 | 1011.2 |
| 20260508220834 | 55 | 69 | 4.0 | 9.0 | 0.00 | 0.07 | 0.07 | 73 | 1011.2 |
| 20260508220334 | 55 | 93 | 3.0 | 13.0 | 0.00 | 0.07 | 0.07 | 73 | 1011.2 |
| 20260508220315 | 55 | 59 | 1.0 | 13.0 | 0.00 | 0.07 | 0.07 | 72 | 1011.3 |
| 20260508215334 | 54 | 144 | 1.0 | 8.0 | 0.00 | 0.07 | 0.07 | 78 | 1011.4 |
| 20260508214832 | 54 | 144 | 1.0 | 8.0 | 0.00 | 0.07 | 0.07 | 76 | 1011.4 |
| 20260508214332 | 54 | 273 | 1.0 | 4.0 | 0.00 | 0.07 | 0.07 | 78 | 1011.5 |
| 20260508214052 | 53 | 140 | 1.0 | 4.0 | 0.00 | 0.07 | 0.07 | 79 | 1011.5 |
| 20260508213330 | 53 | 96 | 0.0 | 4.0 | 0.00 | 0.07 | 0.07 | 80 | 1011.5 |
| 20260508213053 | 52 | 58 | 0.0 | 3.0 | 0.01 | 0.07 | 0.07 | 81 | 1011.5 |
| 20260508212547 | 52 | 80 | 0.0 | 1.0 | 0.01 | 0.07 | 0.07 | 81 | 1011.4 |
| 20260508211831 | 52 | 80 | 0.0 | 0.0 | 0.02 | 0.07 | 0.07 | 82 | 1011.4 |
| 20260508211555 | 51 | 80 | 0.0 | 0.0 | 0.02 | 0.07 | 0.07 | 81 | 1011.4 |
| 20260508210830 | 51 | 80 | 0.0 | 3.0 | 0.02 | 0.07 | 0.07 | 81 | 1011.3 |
| 20260508210343 | 51 | 80 | 1.0 | 3.0 | 0.02 | 0.07 | 0.07 | 80 | 1011.2 |
| 20260508205830 | 51 | 80 | 1.0 | 3.0 | 0.02 | 0.07 | 0.07 | 80 | 1011.3 |
| 20260508205330 | 51 | 80 | 0.0 | 0.0 | 0.02 | 0.07 | 0.07 | 82 | 1011.4 |
| 20260508204831 | 51 | 80 | 0.0 | 0.0 | 0.02 | 0.07 | 0.07 | 81 | 1011.4 |
| 20260508204552 | 51 | 80 | 0.0 | 0.0 | 0.02 | 0.07 | 0.07 | 81 | 1011.6 |
| 20260508203830 | 51 | 80 | 0.0 | 3.0 | 0.02 | 0.07 | 0.07 | 81 | 1011.6 |
| 20260508203330 | 51 | 80 | 2.0 | 7.0 | 0.02 | 0.07 | 0.07 | 79 | 1011.7 |
| 20260508203056 | 51 | 80 | 2.0 | 7.0 | 0.01 | 0.06 | 0.06 | 76 | 1011.7 |
| 20260508202328 | 52 | 111 | 2.0 | 9.0 | 0.01 | 0.06 | 0.06 | 75 | 1011.9 |
| 20260508201828 | 53 | 103 | 4.0 | 16.0 | 0.00 | 0.05 | 0.05 | 71 | 1012.0 |
| 20260508201327 | 54 | 110 | 6.0 | 18.0 | 0.00 | 0.05 | 0.05 | 68 | 1011.9 |
| 20260508200825 | 55 | 184 | 5.0 | 18.0 | 0.00 | 0.05 | 0.05 | 62 | 1011.7 |
| 20260508200321 | 56 | 104 | 5.0 | 16.0 | 0.00 | 0.05 | 0.05 | 61 | 1011.6 |
| 20260508195821 | 56 | 45 | 6.0 | 20.0 | 0.00 | 0.05 | 0.05 | 59 | 1011.5 |
| 20260508195541 | 57 | 62 | 5.0 | 20.0 | 0.00 | 0.05 | 0.05 | 56 | 1011.4 |
| 20260508194822 | 58 | 86 | 4.0 | 12.0 | 0.00 | 0.05 | 0.05 | 52 | 1011.3 |
| 20260508194321 | 58 | 157 | 4.0 | 10.0 | 0.00 | 0.05 | 0.05 | 56 | 1011.3 |
| 20260508193822 | 58 | 175 | 4.0 | 11.0 | 0.00 | 0.05 | 0.05 | 53 | 1011.2 |
| 20260508193321 | 58 | 134 | 3.0 | 11.0 | 0.00 | 0.05 | 0.05 | 55 | 1011.2 |
| 20260508192822 | 58 | 52 | 2.0 | 6.0 | 0.00 | 0.05 | 0.05 | 58 | 1011.3 |
| 20260508192322 | 57 | 150 | 1.0 | 6.0 | 0.00 | 0.05 | 0.05 | 62 | 1011.2 |
| 20260508191822 | 57 | 83 | 0.0 | 4.0 | 0.00 | 0.05 | 0.05 | 61 | 1011.2 |
| 20260508191321 | 57 | 134 | 1.0 | 9.0 | 0.00 | 0.05 | 0.05 | 64 | 1011.2 |
| 20260508190821 | 57 | 134 | 1.0 | 9.0 | 0.01 | 0.05 | 0.05 | 62 | 1011.4 |
| 20260508190321 | 57 | 308 | 0.0 | 3.0 | 0.03 | 0.05 | 0.05 | 65 | 1011.4 |
| 20260508185822 | 56 | 308 | 0.0 | 0.0 | 0.03 | 0.05 | 0.05 | 62 | 1011.4 |
| 20260508185542 | 56 | 308 | 0.0 | 0.0 | 0.03 | 0.05 | 0.05 | 62 | 1011.4 |
| 20260508184817 | 56 | 308 | 0.0 | 2.0 | 0.03 | 0.05 | 0.05 | 60 | 1011.4 |
| 20260508184311 | 56 | 308 | 0.0 | 2.0 | 0.03 | 0.05 | 0.05 | 64 | 1011.3 |
| 20260508183812 | 56 | 295 | 0.0 | 1.0 | 0.03 | 0.05 | 0.05 | 64 | 1011.4 |
| 20260508183312 | 56 | 295 | 0.0 | 3.0 | 0.03 | 0.05 | 0.05 | 63 | 1011.4 |
| 20260508182812 | 56 | 296 | 1.0 | 5.0 | 0.03 | 0.05 | 0.05 | 65 | 1011.5 |
| 20260508182311 | 55 | 178 | 1.0 | 5.0 | 0.03 | 0.05 | 0.05 | 65 | 1011.7 |
| 20260508182251 | 55 | 216 | 0.0 | 3.0 | 0.03 | 0.05 | 0.05 | 69 | 1011.7 |
| 20260508181312 | 54 | 265 | 0.0 | 4.0 | 0.03 | 0.05 | 0.05 | 65 | 1011.7 |
| 20260508180810 | 54 | 225 | 1.0 | 7.0 | 0.02 | 0.04 | 0.04 | 66 | 1012.0 |
| 20260508180530 | 55 | 196 | 1.0 | 8.0 | 0.00 | 0.02 | 0.02 | 60 | 1012.1 |
| 20260508175813 | 56 | 277 | 2.0 | 8.0 | 0.00 | 0.02 | 0.02 | 56 | 1011.9 |
| 20260508175530 | 56 | 169 | 2.0 | 11.0 | 0.00 | 0.02 | 0.02 | 55 | 1011.8 |
| 20260508174810 | 56 | 54 | 2.0 | 11.0 | 0.00 | 0.02 | 0.02 | 57 | 1011.9 |
| 20260508174311 | 57 | 88 | 1.0 | 5.0 | 0.00 | 0.02 | 0.02 | 56 | 1012.0 |
| 20260508173809 | 57 | 224 | 2.0 | 8.0 | 0.01 | 0.02 | 0.02 | 58 | 1012.1 |
| 20260508173310 | 57 | 197 | 3.0 | 9.0 | 0.01 | 0.02 | 0.02 | 58 | 1012.1 |
| 20260508172810 | 56 | 147 | 2.0 | 9.0 | 0.01 | 0.02 | 0.02 | 59 | 1012.2 |
| 20260508172309 | 56 | 173 | 3.0 | 9.0 | 0.01 | 0.02 | 0.02 | 60 | 1012.0 |
| 20260508171809 | 55 | 155 | 4.0 | 9.0 | 0.01 | 0.02 | 0.02 | 64 | 1012.1 |
| 20260508171305 | 54 | 139 | 3.0 | 10.0 | 0.01 | 0.02 | 0.02 | 65 | 1012.2 |
| 20260508170759 | 54 | 163 | 2.0 | 10.0 | 0.01 | 0.02 | 0.02 | 71 | 1012.2 |
| 20260508170253 | 53 | 157 | 1.0 | 5.0 | 0.01 | 0.02 | 0.02 | 74 | 1012.3 |
| 20260508165747 | 52 | 131 | 0.0 | 3.0 | 0.01 | 0.02 | 0.02 | 73 | 1012.4 |
| 20260508165242 | 51 | 67 | 1.0 | 7.0 | 0.01 | 0.02 | 0.02 | 73 | 1012.5 |
| 20260508164955 | 51 | 172 | 3.0 | 14.0 | 0.01 | 0.02 | 0.02 | 70 | 1012.8 |
| 20260508164229 | 53 | 82 | 3.0 | 14.0 | 0.01 | 0.02 | 0.02 | 65 | 1013.0 |
| 20260508163723 | 55 | 197 | 3.0 | 13.0 | 0.00 | 0.01 | 0.01 | 58 | 1012.8 |
| 20260508163223 | 55 | 193 | 2.0 | 11.0 | 0.00 | 0.01 | 0.01 | 52 | 1012.6 |
| 20260508162721 | 56 | 139 | 2.0 | 11.0 | 0.00 | 0.01 | 0.01 | 54 | 1012.5 |
| 20260508162221 | 56 | 119 | 3.0 | 10.0 | 0.00 | 0.01 | 0.01 | 53 | 1012.5 |
| 20260508161723 | 56 | 110 | 3.0 | 11.0 | 0.00 | 0.01 | 0.01 | 53 | 1012.5 |
| 20260508161222 | 55 | 86 | 2.0 | 11.0 | 0.00 | 0.01 | 0.01 | 55 | 1012.5 |
| 20260508160722 | 55 | 159 | 2.0 | 8.0 | 0.00 | 0.01 | 0.01 | 53 | 1012.6 |
| 20260508160222 | 55 | 181 | 3.0 | 14.0 | 0.00 | 0.01 | 0.01 | 55 | 1012.6 |
| 20260508155724 | 56 | 187 | 4.0 | 14.0 | 0.00 | 0.01 | 0.01 | 52 | 1012.7 |
| 20260508155221 | 56 | 148 | 3.0 | 11.0 | 0.00 | 0.01 | 0.01 | 53 | 1012.7 |
| 20260508154722 | 56 | 138 | 3.0 | 11.0 | 0.00 | 0.01 | 0.01 | 55 | 1012.7 |
| 20260508154222 | 55 | 264 | 2.0 | 11.0 | 0.00 | 0.01 | 0.01 | 56 | 1012.7 |
| 20260508153722 | 56 | 155 | 2.0 | 10.0 | 0.00 | 0.01 | 0.01 | 52 | 1012.7 |
| 20260508153221 | 56 | 148 | 4.0 | 11.0 | 0.00 | 0.01 | 0.01 | 54 | 1012.7 |
| 20260508152721 | 56 | 189 | 3.0 | 11.0 | 0.00 | 0.01 | 0.01 | 54 | 1012.8 |
| 20260508152222 | 56 | 234 | 3.0 | 10.0 | 0.00 | 0.01 | 0.01 | 53 | 1012.6 |
| 20260508151721 | 56 | 236 | 4.0 | 11.0 | 0.00 | 0.01 | 0.01 | 53 | 1012.5 |
| 20260508151222 | 56 | 187 | 3.0 | 11.0 | 0.00 | 0.01 | 0.01 | 54 | 1012.5 |
| 20260508150942 | 56 | 209 | 5.0 | 16.0 | 0.00 | 0.01 | 0.01 | 54 | 1012.5 |
| 20260508150217 | 56 | 107 | 5.0 | 16.0 | 0.00 | 0.01 | 0.01 | 53 | 1012.6 |
| 20260508145937 | 56 | 92 | 4.0 | 15.0 | 0.00 | 0.01 | 0.01 | 54 | 1012.6 |
| 20260508145218 | 55 | 133 | 5.0 | 15.0 | 0.00 | 0.01 | 0.01 | 55 | 1012.5 |
| 20260508144717 | 55 | 177 | 5.0 | 15.0 | 0.00 | 0.01 | 0.01 | 55 | 1012.5 |
| 20260508144439 | 55 | 232 | 5.0 | 15.0 | 0.00 | 0.01 | 0.01 | 53 | 1012.5 |
| 20260508143718 | 55 | 126 | 5.0 | 13.0 | 0.00 | 0.01 | 0.01 | 53 | 1012.3 |